www.pogodaiklimat.ru

Погода и климат >> Архив погоды >> Россия >> Крым >> Белогорск


ПОГОДА в Белогорске

  • Прогноз погоды в Белогорске
  • Монитор погоды в Белогорске
  • Климат города

АРХИВ ПОГОДЫ в Белогорске

Время (UTC), дата Ветер
(напр.,м/с)
 
Видим.   Явления Облачность Т
(С)
Тd
(С)
f
(%)
Тe
(С)
Тes
(С)
Комфортность P
(гПа)
Po
(гПа)
Тmin
(С)
Tmax
(С)
R
(мм)
R24
(мм)
S
(см)
03 13.09 штиль 0 20 км ясно +11.4 +10.8 96 +11 +11 1022.4 997.7 +11.2
06 13.09 штиль 0 20 км ясно +17.5 +14.0 80 +17 +23 1021.0 996.9 +11.2
09 13.09 СВ 5 20 км 8/4 600 м
[Sc Ci fib]
+24.7 +14.1 52 +27 +30 жарко 1018.9 995.4
12 13.09 СВ 5
{11}
20 км 6/4 600 м
[Cu hum Ci fib]
+25.7 +15.3 53 +29 +31 душно 1016.5 993.2
15 13.09 СВ 4 20 км 8/4 600 м
[Sc Ci fib]
+22.9 +15.6 63 +27 +27 душно 1015.3 991.8
18 13.09 Ю 1 20 км 6/3 600 м
[Sc Ac trans Ci fib]
+19.6 +16.8 84 +23 +23 комфорт 1015.4 991.6 +26.7
21 13.09 Ю 2 10 км слабый ливневой дождь 10/10 600 м
[Cb cap]
+18.1 +16.9 93 +19 +19 1015.2 991.3
00 14.09 СВ 2 10 км гроза, ливневой дождь 10/10 600 м
[Cb cap]
+17.6 +15.6 88 +18 +18 1011.5 987.7
03 14.09 Ю 1 10 км {гроза, ливн. осадки} 8/8 600 м
[Cb cap Ci fib]
+15.5 +14.8 96 +16 +16 1011.3 987.3 +15.3 2
06 14.09 ЮВ 1 20 км {гроза, ливн. осадки} 8/6 600 м
[Sc Ac trans]
+19.5 +16.7 84 +23 +24 комфорт 1010.0 986.4 +15.0 2
09 14.09 СВ 6-11
{10}
20 км 9/4 600 м
[Sc Ac trans Ci fib]
+23.7 +15.2 59 +27 +28 жарко 1008.6 985.3
12 14.09 С 2
{11}
10 км гроза, ливневой дождь 10/10 600 м
[Cb cap]
+21.2 +18.3 84 +25 +25 комфорт 1007.4 984.0
15 14.09 С 4 10 км гроза, ливневой дождь 10/10 600 м
[Cb cap]
+17.9 +17.3 96 +18 +18 1009.3 985.6 2
18 14.09 СЗ 2 20 км {гроза, ливн. осадки} 10/10 600 м
[Cb cap]
+18.3 +17.5 95 +19 +19 1009.4 985.7 +24.6 2
21 14.09 ЮЗ 1 20 км 10/10 600 м
[Sc]
+16.9 +16.4 97 +18 +18 1008.9 985.1
00 15.09 Ю 1 20 км 10/10 600 м
[Sc]
+16.9 +16.4 97 +18 +18 1008.3 984.5
03 15.09 штиль 0 20 км 10/10 600 м
[Sc]
+16.6 +16.1 97 +16 +16 1008.2 984.4 +15.8
06 15.09 СЗ 2 10 км 10/10 600 м
[Cb cap]
+18.2 +17.0 93 +19 +19 1008.2 984.5 +15.8
09 15.09 С 2 20 км 9/9 600 м
[Cb cap]
+23.4 +16.9 67 +29 +30 душно 1007.3 984.0
12 15.09 В 5 2000 м гроза, ливневой дождь 10/10 300 м
[Cb cap]
+18.7 +17.7 94 +20 +20 1008.6 984.9
15 15.09 СЗ 2 20 км в посл. час гроза {ливн. осадки} 10/10 600 м
[Cb cap]
+18.6 +17.7 95 +20 +20 1008.6 984.9 34
18 15.09 З 3
{11}
10 км слабый ливневой дождь {гроза} 10/10 600 м
[Cb cap]
+17.4 +16.9 97 +17 +17 1010.8 987.0 +23.4 42
21 15.09 З 4 20 км {ливн. осадки} 10/10 600 м
[Cb cap]
+17.7 +16.5 93 +17 +17 1011.2 987.4
00 16.09 З 4 10 км слабый ливневой дождь 10/10 600 м
[Cb cap]
+17.3 +16.3 94 +17 +17 1012.5 988.6
03 16.09 З 3 10 км 10/10 600 м
[Sc]
+16.8 +15.9 94 +17 +17 1013.7 989.8 +16.6 10
06 16.09 З 3 10 км 9/3 600 м
[Cu Sc Ac trans Ci fib]
+17.9 +15.3 85 +18 +19 1014.6 990.7 +16.2 1
09 16.09 СЗ 5 20 км 9/4 600 м
[Cu Sc Ac As]
+20.6 +14.1 66 +23 +25 комфорт 1015.3 991.6
12 16.09 СЗ 5 20 км 9/3 600 м
[Cu med, cong Ac trans]
+22.2 +13.4 57 +25 +26 комфорт 1015.8 992.2
15 16.09 СЗ 4
{10}
20 км 6/5 600 м
[Cb cap Ac trans]
+22.2 +12.8 55 +25 +25 комфорт 1016.4 992.8
18 16.09 СЗ 3 2000 м ливневой дождь 10/10 600 м
[Cb cap]
+18.8 +17.2 90 +20 +20 1018.6 994.7 +23.4 0.0
21 16.09 СЗ 3 10 км {ливн. осадки} 10/10 600 м
[Cb cap]
+17.4 +15.5 89 +17 +17 1020.2 996.1
00 17.09 СЗ 2 20 км {ливн. осадки} 9/9 600 м
[Sc]
+15.8 +14.0 89 +16 +16 1020.6 996.4
03 17.09 СЗ 1 20 км ясно +12.6 +11.9 95 +13 +13 1022.3 997.8 +12.4 3
06 17.09 С 1 20 км 3/3 600 м
[Sc]
+15.2 +11.9 81 +16 +19 1023.3 999.0 +12.2 3
09 17.09 С 3 20 км 4/4 600 м
[Cu med, cong]
+19.1 +9.9 55 +20 +26 1023.1 999.1
12 17.09 С 4
{10}
20 км 1/1 600 м
[Cu med, cong]
+19.9 +7.2 44 +21 +25 комфорт 1023.1 999.1
15 17.09 С 2 20 км ясно +18.8 +6.9 46 +20 +20 1022.9 998.8
18 17.09 Ю 3 20 км ясно +11.6 +7.7 77 +10 +10 1024.8 1000.1 +20.1
21 17.09 ЮЗ 1 20 км ясно +8.7 +7.6 93 +8 +8 1025.1 1000.1
00 18.09 штиль 0 20 км ясно +7.3 +6.6 95 +6 +6 1025.2 1000.1
03 18.09 штиль 0 20 км ясно +6.4 +6.0 97 +5 +5 1025.4 1000.2 +5.9
06 18.09 Ю 1 20 км ясно +12.9 +8.3 74 +13 +17 1025.6 1001.0 +5.6
09 18.09 СЗ 3 20 км ясно +19.1 +4.0 37 +20 +28 1024.8 1000.7
12 18.09 С 2 20 км ясно +21.1 +3.7 32 +21 +29 комфорт 1024.2 1000.3
15 18.09 С 3 20 км ясно +20.3 +5.0 37 +21 +22 комфорт 1023.5 999.5
18 18.09 Ю 3 20 км ясно +12.2 +8.1 76 +11 +11 1024.8 1000.1 +21.4
21 18.09 ЮЗ 1 20 км ясно +9.6 +7.5 87 +9 +9 1025.0 1000.1
00 19.09 штиль 0 20 км ясно +7.7 +6.4 91 +7 +7 1025.6 1000.5
03 19.09 штиль 0 20 км ясно +7.2 +6.3 94 +6 +6 1025.7 1000.6 +6.6
06 19.09 штиль 0 20 км ясно +14.4 +9.6 73 +14 +19 1025.6 1001.1 +6.6
09 19.09 В 3 ясно 40 1001.3
12 19.09 В 2 ясно 38 1000.0
15 19.09 СВ 4 ясно 41 1000.0
18 19.09 Ю 2 ясно 73 1000.0
21 19.09 Ю 1 ясно 84 1000.0
00 20.09 штиль 0 ясно 92 1000.0

 

Местоположение метеостанции Белогорск (Крым, Россия): широта 45.05 долгота 34.60 высота над уровнем моря 205 м.

В архиве по умолчанию представлена погода в Белогорске за последнюю неделю. Архивные данные за месяц целиком и за предыдущие месяцы, начиная с января 2011 года, Вы можете получить, выбрав интересующий диапазон дат из раскрывающегося списка и нажав кнопку "Ввод!".


*Определитесь, кто Вы:
робот инопланетянин человек

Внимание! Время в таблицах - всемирное. Для получения местного времени необходимо прибавить поправку, которая в Белогорске равна 3 ч.

Смотрите также архив погоды в соседних городах и на ближайших метеорологических станциях:

Погода в Ангарском Перевале (Крым, Россия) (39 км)
Погода в Симферополе город (Крым, Россия) (39 км)
Погода в Алуште (Крым, Россия) (45 км)
Погода в Нижнегорском (Крым, Россия) (46 км)
Погода в Симферополе (Крым, Россия) (50 км)
Погода в Карадаге (Крым, Россия) (50 км)
Погода в Стрелковом (Херсонская область, Украина) (56 км)
Погода в Почтовом (Крым, Россия) (57 км)
Погода в Феодосии (Крым, Россия) (61 км)
Погода в Владиславовке (Крым, Россия) (63 км)

Пояснения к столбцам:

Ветер - указаны скорость ветра в м/с - средняя за 10 мин, порывы в срок и между сроками (в фигурных скобках) и направление, откуда дует ветер: С - северный, СВ - северо-восточный, В - восточный, ЮВ - юго-восточный, Ю - южный, ЮЗ - юго-западный, З - западный, СЗ - северо-западный.
Видимость - горизонтальная дальность видимости в метрах или километрах. При видимости от 1 до 10 км при отсутствии осадков обычно наблюдается дымка, при ухудшении видимости до 1 км и менее - туман. В сухую погоду видимость может ухудшаться дымом, пылью или мглою.
Явления - указаны атмосферные явления, наблюдавшиеся в срок или в последний час перед сроком; фигурными скобками обозначены явления, наблюдавшиеся между сроками (за 1-3 часа до срока); квадратными скобками обозначены град или гололедные отложения с указанием их диаметра в мм.
Облачность - указаны через наклонную черту общая и нижняя облачность в баллах и высота нижней границы облаков в метрах; квадратными скобками обозначены формы облаков: Ci - перистые, Cs - перисто-слоистые, Cc - перисто-кучевые, Ac - высококучевые, As - высокослоистые, Sc - слоисто-кучевые, Ns - слоисто-дождевые, Cu - кучевые, Cb - кучево-дождевые. Подробнее классификацию облаков см. в Атласе облаков (PDF).
T - Температура воздуха - температура, измеренная на высоте 2 м над землей.
Td - Температура точки росы - температура, при понижении до которой содержащийся в воздухе водяной пар достигнет насыщения.
f - Относительная влажность воздуха - влажноcть воздуха, измеренная на высоте 2 м над землей.
Te - Эффективная температура - температура, которую ощущает одетый по сезону человек в тени. Характеристика душности погоды. При расчете учитывается влияние влажности воздуха и скорости ветра на теплоощущения человека.
Tes - Эффективная температура на солнце - температура, которую ощущает человек, с поправкой на солнечный нагрев. Характеристика знойности погоды. Зависит от высоты солнца над горизонтом, облачности и скорости ветра. Ночью, в пасмурную погоду, а также при ветре 12 м/с и более поправка равна нулю.
P - Атмосферное давление - приведенное к уровню моря атмосферное давление.
Po - Атмосферное давление - измеренное на уровне метеостанции атмосферное давление.
Tmin - Минимальная температура - минимум температуры воздуха на высоте 2 м над землей.
Tmax - Максимальная температура - максимум температуры воздуха на высоте 2 м над землей.
R - Количество осадков - Количество выпавших осадков за период времени, мм. При наведении курсора мыши на число - период времени, за который выпало указанное количество осадков.
R24 - Количество осадков - Количество выпавших осадков за 24 часа, мм.
S - Снежный покров - Высота снежного покрова, см. При наведении курсора мыши на число - состояние снежного покрова и степень покрытия местности в баллах.